Location: Miles
(41.4492°N, 81.6087°W)
Time: 21:32:55
(UTC+00:00)

Vanguard 2 Rocket - Pass Details

Date: 24 September 2024
Orbit: 553 x 3298 km, 32.9° (Epoch: 12 October)

Event Time Altitude Azimuth Distance (km) Brightness Sun altitude
Rises 08:19:59 0° 269° (W) 4,332 - -32.3°
Reaches altitude 10° 08:22:33 10° 263° (W) 3,652 - -31.9°
Exits shadow 08:30:45 46° 207° (SSW) 2,618 8.7 -30.6°
Maximum altitude 08:31:58 47° 193° (SSW) 2,683 8.9 -30.4°
Drops below altitude 10° 08:47:26 10° 128° (SE) 5,828 11.3 -27.8°
Sets 08:52:49 0° 123° (ESE) 7,088 11.8 -26.9°
